Location: Pinon Hills
(34.4429°N, 117.6403°W)
Time: 07:02:44
(UTC-08:00)

Uosat F - Visible Passes

Search period start: 07 February 2016 00:00
Search period end: 17 February 2016 00:00
Orbit: 751 x 761 km, 98.8° (Epoch: 07 February)

Date Brightness Start Highest point End Pass type
(mag) Time Alt. Az. Time Alt. Az. Time Alt. Az.
07 Feb 13.1 04:41:06 10° NE 04:45:25 28° E 04:49:43 10° SSE visible
08 Feb 14.4 04:04:54 10° E 04:05:42 10° E 04:06:30 10° E visible
08 Feb 11.0 05:39:50 10° N 05:44:53 71° WNW 05:49:54 10° SSW visible
09 Feb 12.2 05:00:39 10° NNE 05:05:29 45° E 05:10:18 10° S visible
09 Feb 14.2 17:50:36 10° SW 17:53:56 18° W 17:57:17 10° NW visible
10 Feb 13.8 04:22:33 10° NE 04:25:53 18° E 04:29:11 10° SE visible
10 Feb 11.4 06:00:01 10° N 06:04:47 44° WNW 06:09:33 10° SW visible
11 Feb 11.3 05:20:26 10° NNE 05:25:30 73° ESE 05:30:32 10° S visible
11 Feb 14.8 18:13:06 10° WSW 18:14:06 11° W 18:15:06 10° W visible
12 Feb 13.1 04:41:41 10° NE 04:46:00 28° E 04:50:16 10° SSE visible
13 Feb 14.4 04:05:32 10° E 04:06:17 10° E 04:07:00 10° E visible
13 Feb 11.0 05:40:25 10° N 05:45:27 71° WNW 05:50:28 10° SSW visible
14 Feb 12.3 05:01:13 10° NNE 05:06:04 44° E 05:10:52 10° S visible
14 Feb 14.2 17:51:09 10° SW 17:54:30 18° W 17:57:52 10° NW visible
15 Feb 13.9 04:23:08 10° NE 04:26:27 17° E 04:29:45 10° SE visible
15 Feb 11.4 06:00:34 10° N 06:05:21 44° WNW 06:10:07 10° SW visible
16 Feb 11.3 05:21:00 10° NNE 05:26:04 72° ESE 05:31:06 10° S visible
16 Feb 14.8 18:13:35 10° WSW 18:14:40 11° W 18:15:44 10° W visible
